| time (UTC) | temp C | wind direction | speed KPH | gust KPH | rain 1hr cm | rain 24hr cm | rain mn cm | humidity % | barometer mb |
| 20260906080136 | 28 | 51 | 1.6 | 3.2 | 0.00 | 0.00 | 0.00 | 80 | 1019.7 |
| 20260906075636 | 28 | 51 | 0.0 | 3.2 | 0.00 | 0.00 | 0.00 | 79 | 1019.7 |
| 20260906075140 | 28 | 51 | 0.0 | 3.2 | 0.00 | 0.00 | 0.00 | 79 | 1019.7 |
| 20260906074630 | 28 | 51 | 0.0 | 3.2 | 0.00 | 0.00 | 0.00 | 79 | 1019.6 |
| 20260906074125 | 28 | 51 | 0.0 | 3.2 | 0.00 | 0.00 | 0.00 | 80 | 1019.5 |
| 20260906073625 | 28 | 51 | 0.0 | 3.2 | 0.00 | 0.00 | 0.00 | 80 | 1019.4 |
| 20260906073123 | 28 | 50 | 0.0 | 0.0 | 0.00 | 0.00 | 0.00 | 80 | 1019.3 |
| 20260906072627 | 28 | 38 | 0.0 | 0.0 | 0.00 | 0.00 | 0.00 | 80 | 1019.3 |
| 20260906072111 | 28 | 38 | 0.0 | 0.0 | 0.00 | 0.00 | 0.00 | 80 | 1019.3 |
| 20260906071553 | 28 | 38 | 0.0 | 0.0 | 0.00 | 0.00 | 0.00 | 80 | 1019.3 |
| 20260906071042 | 28 | 153 | 0.0 | 0.0 | 0.00 | 0.00 | 0.00 | 80 | 1019.2 |
| 20260906070544 | 28 | 153 | 0.0 | 1.6 | 0.00 | 0.00 | 0.00 | 80 | 1019.2 |
| 20260906070043 | 28 | 154 | 0.0 | 0.0 | 0.00 | 0.00 | 0.00 | 79 | 1019.2 |
| 20260906064937 | 28 | 155 | 0.0 | 3.2 | 0.00 | 0.00 | 0.00 | 79 | 1019.2 |
| 20260906064447 | 28 | 165 | 0.0 | 3.2 | 0.00 | 0.00 | 0.00 | 80 | 1019.2 |
| 20260906063930 | 28 | 165 | 0.0 | 3.2 | 0.00 | 0.00 | 0.00 | 80 | 1019.1 |
| 20260906063419 | 28 | 167 | 0.0 | 3.2 | 0.00 | 0.00 | 0.00 | 80 | 1019.1 |
| 20260906062923 | 28 | 167 | 0.0 | 3.2 | 0.00 | 0.00 | 0.00 | 80 | 1019.1 |
| 20260906062414 | 28 | 167 | 0.0 | 3.2 | 0.00 | 0.00 | 0.00 | 80 | 1019.1 |
| 20260906060706 | 27 | 213 | 0.0 | 3.2 | 0.00 | 0.00 | 0.00 | 83 | 1018.9 |
| 20260906060215 | 27 | 213 | 1.6 | 3.2 | 0.00 | 0.00 | 0.00 | 84 | 1018.9 |
| 20260906055043 | 26 | 198 | 0.0 | 4.8 | 0.00 | 0.00 | 0.00 | 85 | 1018.8 |
| 20260906054532 | 26 | 193 | 1.6 | 4.8 | 0.00 | 0.00 | 0.00 | 86 | 1018.7 |
| 20260906054015 | 26 | 211 | 1.6 | 4.8 | 0.00 | 0.00 | 0.00 | 86 | 1018.7 |
| 20260906053456 | 25 | 211 | 1.6 | 3.2 | 0.00 | 0.00 | 0.00 | 87 | 1018.7 |
| 20260906052946 | 25 | 217 | 1.6 | 4.8 | 0.00 | 0.00 | 0.00 | 87 | 1018.6 |
| 20260906052435 | 25 | 218 | 1.6 | 6.4 | 0.00 | 0.00 | 0.00 | 88 | 1018.5 |
| 20260906051334 | 24 | 207 | 3.2 | 6.4 | 0.00 | 0.00 | 0.00 | 88 | 1018.6 |
| 20260906050818 | 23 | 222 | 1.6 | 6.4 | 0.00 | 0.00 | 0.00 | 88 | 1018.6 |
| 20260906050315 | 23 | 220 | 1.6 | 6.4 | 0.00 | 0.00 | 0.00 | 88 | 1018.6 |
| 20260906045756 | 23 | 194 | 3.2 | 6.4 | 0.00 | 0.00 | 0.00 | 88 | 1018.6 |
| 20260906045241 | 23 | 186 | 3.2 | 6.4 | 0.00 | 0.00 | 0.00 | 88 | 1018.5 |
| 20260906044738 | 23 | 223 | 3.2 | 6.4 | 0.00 | 0.00 | 0.00 | 88 | 1018.6 |
| 20260906043622 | 23 | 207 | 1.6 | 4.8 | 0.00 | 0.00 | 0.00 | 88 | 1018.5 |
| 20260906042449 | 23 | 198 | 1.6 | 6.4 | 0.00 | 0.00 | 0.00 | 88 | 1018.4 |
| 20260906041956 | 23 | 194 | 3.2 | 6.4 | 0.00 | 0.00 | 0.00 | 88 | 1018.5 |
| 20260906041504 | 23 | 225 | 3.2 | 6.4 | 0.00 | 0.00 | 0.00 | 88 | 1018.3 |
| 20260906041013 | 23 | 208 | 3.2 | 6.4 | 0.00 | 0.00 | 0.00 | 88 | 1018.3 |
| 20260906040515 | 23 | 193 | 1.6 | 6.4 | 0.00 | 0.00 | 0.00 | 88 | 1018.3 |
| 20260906040019 | 23 | 200 | 1.6 | 6.4 | 0.00 | 0.00 | 0.00 | 88 | 1018.3 |
| 20260906035507 | 23 | 187 | 1.6 | 6.4 | 0.00 | 0.00 | 0.00 | 88 | 1018.2 |
| 20260906035015 | 23 | 194 | 1.6 | 6.4 | 0.00 | 0.00 | 0.00 | 88 | 1018.4 |
| 20260906034502 | 23 | 207 | 1.6 | 4.8 | 0.00 | 0.00 | 0.00 | 88 | 1018.4 |
| 20260906033945 | 23 | 225 | 1.6 | 4.8 | 0.00 | 0.00 | 0.00 | 88 | 1018.4 |
| 20260906033437 | 23 | 180 | 1.6 | 4.8 | 0.00 | 0.00 | 0.00 | 88 | 1018.4 |
| 20260906032920 | 23 | 213 | 1.6 | 4.8 | 0.00 | 0.00 | 0.00 | 88 | 1018.4 |
| 20260906032400 | 23 | 219 | 1.6 | 4.8 | 0.00 | 0.00 | 0.00 | 88 | 1018.4 |
| 20260906031905 | 23 | 220 | 1.6 | 4.8 | 0.00 | 0.00 | 0.00 | 88 | 1018.3 |
| 20260906031415 | 23 | 193 | 1.6 | 4.8 | 0.00 | 0.00 | 0.00 | 88 | 1018.3 |
| 20260906030924 | 23 | 179 | 1.6 | 4.8 | 0.00 | 0.00 | 0.00 | 88 | 1018.3 |
| 20260906030416 | 23 | 202 | 1.6 | 4.8 | 0.00 | 0.00 | 0.00 | 88 | 1018.3 |
| 20260906025919 | 23 | 199 | 1.6 | 4.8 | 0.00 | 0.00 | 0.00 | 89 | 1018.4 |
| 20260906025420 | 23 | 200 | 1.6 | 4.8 | 0.00 | 0.00 | 0.00 | 89 | 1018.4 |
| 20260906024300 | 23 | 209 | 1.6 | 4.8 | 0.00 | 0.00 | 0.00 | 89 | 1018.3 |
| 20260906023124 | 23 | 216 | 1.6 | 4.8 | 0.00 | 0.00 | 0.00 | 89 | 1018.3 |
| 20260906022606 | 23 | 219 | 1.6 | 4.8 | 0.00 | 0.00 | 0.00 | 89 | 1018.4 |
| 20260906022113 | 23 | 208 | 1.6 | 4.8 | 0.00 | 0.00 | 0.00 | 89 | 1018.5 |
| 20260906021602 | 23 | 191 | 1.6 | 3.2 | 0.00 | 0.00 | 0.00 | 89 | 1018.4 |
| 20260906020502 | 23 | 206 | 1.6 | 4.8 | 0.00 | 0.00 | 0.00 | 89 | 1018.5 |
| 20260906015958 | 23 | 196 | 1.6 | 4.8 | 0.00 | 0.00 | 0.00 | 89 | 1018.6 |
| 20260906015448 | 24 | 204 | 1.6 | 4.8 | 0.00 | 0.00 | 0.00 | 89 | 1018.6 |
| 20260906014349 | 24 | 217 | 1.6 | 4.8 | 0.00 | 0.00 | 0.00 | 89 | 1018.6 |
| 20260906013227 | 24 | 198 | 1.6 | 4.8 | 0.00 | 0.00 | 0.00 | 88 | 1018.6 |
| 20260906012720 | 24 | 209 | 1.6 | 4.8 | 0.00 | 0.00 | 0.00 | 88 | 1018.5 |
| 20260906012205 | 24 | 217 | 1.6 | 4.8 | 0.00 | 0.00 | 0.00 | 88 | 1018.6 |
| 20260906011650 | 24 | 202 | 1.6 | 4.8 | 0.00 | 0.00 | 0.00 | 88 | 1018.5 |
| 20260906011147 | 24 | 205 | 1.6 | 4.8 | 0.00 | 0.00 | 0.00 | 87 | 1018.6 |
| 20260906010641 | 24 | 211 | 1.6 | 4.8 | 0.00 | 0.00 | 0.00 | 87 | 1018.6 |
| 20260906010142 | 24 | 202 | 1.6 | 4.8 | 0.00 | 0.00 | 0.00 | 87 | 1018.7 |
| 20260906005627 | 24 | 211 | 1.6 | 4.8 | 0.00 | 0.00 | 0.00 | 87 | 1018.6 |
| 20260906004502 | 24 | 207 | 1.6 | 4.8 | 0.00 | 0.00 | 0.00 | 87 | 1018.7 |
| 20260906003311 | 24 | 225 | 1.6 | 6.4 | 0.00 | 0.00 | 0.00 | 86 | 1018.6 |
| 20260906002810 | 24 | 198 | 1.6 | 6.4 | 0.00 | 0.00 | 0.00 | 86 | 1018.6 |
| 20260906002306 | 24 | 198 | 1.6 | 6.4 | 0.00 | 0.00 | 0.00 | 86 | 1018.7 |
| 20260906001812 | 24 | 196 | 1.6 | 3.2 | 0.00 | 0.00 | 0.00 | 85 | 1018.6 |
| 20260906001307 | 24 | 200 | 1.6 | 4.8 | 0.00 | 0.00 | 0.00 | 85 | 1018.6 |
| 20260906000810 | 24 | 205 | 1.6 | 4.8 | 0.00 | 0.00 | 0.00 | 85 | 1018.6 |
| 20260906000306 | 24 | 190 | 1.6 | 4.8 | 0.00 | 0.00 | 0.00 | 85 | 1018.6 |
| 20260905235802 | 24 | 196 | 1.6 | 4.8 | 0.00 | 0.00 | 0.00 | 85 | 1018.5 |
| 20260905235252 | 25 | 222 | 1.6 | 4.8 | 0.00 | 0.00 | 0.00 | 85 | 1018.7 |
| 20260905234735 | 25 | 202 | 1.6 | 4.8 | 0.00 | 0.00 | 0.00 | 85 | 1018.7 |
| 20260905234227 | 25 | 191 | 1.6 | 4.8 | 0.00 | 0.00 | 0.00 | 84 | 1018.8 |
| 20260905233720 | 25 | 188 | 1.6 | 4.8 | 0.00 | 0.00 | 0.00 | 84 | 1018.8 |
| 20260905232545 | 25 | 215 | 3.2 | 4.8 | 0.00 | 0.00 | 0.00 | 84 | 1018.8 |
| 20260905232046 | 25 | 202 | 3.2 | 4.8 | 0.00 | 0.00 | 0.00 | 83 | 1018.8 |
| 20260905231542 | 25 | 209 | 1.6 | 4.8 | 0.00 | 0.00 | 0.00 | 83 | 1018.7 |
| 20260905231051 | 25 | 207 | 1.6 | 4.8 | 0.00 | 0.00 | 0.00 | 83 | 1018.7 |
| 20260905225937 | 25 | 191 | 1.6 | 4.8 | 0.00 | 0.00 | 0.00 | 82 | 1018.6 |
| 20260905225429 | 26 | 218 | 1.6 | 4.8 | 0.00 | 0.00 | 0.00 | 83 | 1018.6 |
| 20260905224254 | 25 | 227 | 1.6 | 4.8 | 0.00 | 0.00 | 0.00 | 83 | 1018.8 |
| 20260905223801 | 25 | 269 | 3.2 | 4.8 | 0.00 | 0.00 | 0.00 | 82 | 1018.9 |
| 20260905223310 | 24 | 206 | 3.2 | 6.4 | 0.00 | 0.00 | 0.00 | 82 | 1018.8 |
| 20260905222802 | 24 | 212 | 3.2 | 6.4 | 0.00 | 0.00 | 0.00 | 81 | 1018.8 |
| 20260905222255 | 25 | 222 | 3.2 | 6.4 | 0.00 | 0.00 | 0.00 | 81 | 1018.8 |
| 20260905221134 | 24 | 207 | 3.2 | 6.4 | 0.00 | 0.00 | 0.00 | 81 | 1018.7 |
| 20260905220641 | 24 | 211 | 1.6 | 6.4 | 0.00 | 0.00 | 0.00 | 81 | 1018.7 |
| 20260905220143 | 24 | 213 | 1.6 | 6.4 | 0.00 | 0.00 | 0.00 | 81 | 1018.7 |
| 20260905215016 | 25 | 211 | 1.6 | 4.8 | 0.00 | 0.00 | 0.00 | 81 | 1018.6 |
| 20260905214521 | 25 | 217 | 1.6 | 6.4 | 0.00 | 0.00 | 0.00 | 81 | 1018.6 |
| 20260905214026 | 25 | 211 | 1.6 | 6.4 | 0.00 | 0.00 | 0.00 | 81 | 1018.6 |
| 20260905213534 | 25 | 215 | 1.6 | 6.4 | 0.00 | 0.00 | 0.00 | 81 | 1018.6 |
| 20260905213020 | 25 | 223 | 1.6 | 6.4 | 0.00 | 0.00 | 0.00 | 80 | 1018.7 |
| 20260905212500 | 25 | 209 | 1.6 | 4.8 | 0.00 | 0.00 | 0.00 | 80 | 1018.6 |
| 20260905212010 | 25 | 205 | 1.6 | 4.8 | 0.00 | 0.00 | 0.00 | 80 | 1018.5 |
| 20260905211505 | 25 | 196 | 1.6 | 4.8 | 0.00 | 0.00 | 0.00 | 80 | 1018.6 |
| 20260905211000 | 25 | 219 | 1.6 | 4.8 | 0.00 | 0.00 | 0.00 | 80 | 1018.5 |
| 20260905210450 | 25 | 209 | 1.6 | 4.8 | 0.00 | 0.00 | 0.00 | 80 | 1018.6 |
| 20260905205955 | 25 | 219 | 1.6 | 3.2 | 0.00 | 0.00 | 0.00 | 80 | 1018.7 |
| 20260905204805 | 25 | 202 | 1.6 | 4.8 | 0.00 | 0.00 | 0.00 | 79 | 1018.6 |
| 20260905204309 | 25 | 209 | 1.6 | 6.4 | 0.00 | 0.00 | 0.00 | 79 | 1018.6 |
| 20260905203808 | 25 | 203 | 1.6 | 6.4 | 0.00 | 0.00 | 0.00 | 78 | 1018.7 |
| 20260905203314 | 25 | 223 | 1.6 | 6.4 | 0.00 | 0.00 | 0.00 | 78 | 1018.6 |
| 20260905202805 | 25 | 207 | 1.6 | 6.4 | 0.00 | 0.00 | 0.00 | 78 | 1018.6 |
| 20260905202314 | 25 | 167 | 1.6 | 6.4 | 0.00 | 0.00 | 0.00 | 78 | 1018.7 |
| 20260905201816 | 25 | 176 | 1.6 | 6.4 | 0.00 | 0.00 | 0.00 | 78 | 1018.6 |
| 20260905201326 | 25 | 188 | 1.6 | 6.4 | 0.00 | 0.00 | 0.00 | 77 | 1018.6 |
| 20260905200825 | 25 | 208 | 1.6 | 6.4 | 0.00 | 0.00 | 0.00 | 77 | 1018.5 |
| 20260905200331 | 25 | 190 | 1.6 | 6.4 | 0.00 | 0.00 | 0.00 | 76 | 1018.5 |
| 20260905195838 | 25 | 217 | 1.6 | 6.4 | 0.00 | 0.00 | 0.00 | 76 | 1018.5 |
| 20260905195328 | 25 | 211 | 1.6 | 6.4 | 0.00 | 0.00 | 0.00 | 75 | 1018.5 |
| 20260905194821 | 26 | 207 | 1.6 | 6.4 | 0.00 | 0.00 | 0.00 | 75 | 1018.6 |
| 20260905194313 | 26 | 213 | 1.6 | 4.8 | 0.00 | 0.00 | 0.00 | 74 | 1018.6 |
| 20260905193147 | 26 | 191 | 1.6 | 0.0 | 0.00 | 0.00 | 0.00 | 73 | 1018.5 |
| 20260905192654 | 26 | 194 | 1.6 | 4.8 | 0.00 | 0.00 | 0.00 | 73 | 1018.5 |
| 20260905192149 | 26 | 194 | 0.0 | 4.8 | 0.00 | 0.00 | 0.00 | 73 | 1018.4 |
| 20260905191649 | 27 | 198 | 1.6 | 4.8 | 0.00 | 0.00 | 0.00 | 73 | 1018.4 |
| 20260905191153 | 27 | 209 | 1.6 | 4.8 | 0.00 | 0.00 | 0.00 | 74 | 1018.4 |
| 20260905190648 | 27 | 331 | 0.0 | 3.2 | 0.00 | 0.00 | 0.00 | 75 | 1018.4 |
| 20260905190139 | 27 | 221 | 0.0 | 1.6 | 0.00 | 0.00 | 0.00 | 75 | 1018.3 |
| 20260905185630 | 27 | 221 | 0.0 | 0.0 | 0.00 | 0.00 | 0.00 | 73 | 1018.3 |
| 20260905185137 | 27 | 221 | 1.6 | 4.8 | 0.00 | 0.00 | 0.00 | 73 | 1018.4 |
| 20260905184647 | 27 | 221 | 1.6 | 4.8 | 0.00 | 0.00 | 0.00 | 73 | 1018.1 |
| 20260905184144 | 27 | 217 | 1.6 | 4.8 | 0.00 | 0.00 | 0.00 | 72 | 1018.1 |
| 20260905183631 | 28 | 224 | 1.6 | 8.0 | 0.00 | 0.00 | 0.00 | 70 | 1018.0 |
| 20260905183140 | 28 | 224 | 3.2 | 8.0 | 0.00 | 0.00 | 0.00 | 70 | 1017.9 |
| 20260905182624 | 28 | 299 | 4.8 | 14.5 | 0.00 | 0.00 | 0.00 | 70 | 1017.9 |
| 20260905182122 | 28 | 313 | 6.4 | 14.5 | 0.00 | 0.00 | 0.00 | 66 | 1018.1 |
| 20260905181628 | 28 | 297 | 6.4 | 14.5 | 0.00 | 0.00 | 0.00 | 65 | 1018.0 |
| 20260905181128 | 28 | 313 | 4.8 | 14.5 | 0.00 | 0.00 | 0.00 | 65 | 1018.0 |
| 20260905180631 | 28 | 292 | 1.6 | 11.3 | 0.00 | 0.00 | 0.00 | 64 | 1017.9 |
| 20260905180125 | 28 | 284 | 0.0 | 0.0 | 0.00 | 0.00 | 0.00 | 69 | 1017.8 |
| 20260905175606 | 28 | 284 | 0.0 | 4.8 | 0.00 | 0.00 | 0.00 | 66 | 1017.7 |
| 20260905175050 | 28 | 284 | 0.0 | 4.8 | 0.00 | 0.00 | 0.00 | 67 | 1017.7 |
| 20260905174542 | 28 | 268 | 1.6 | 8.0 | 0.00 | 0.00 | 0.00 | 63 | 1017.6 |
| 20260905174037 | 28 | 283 | 1.6 | 8.0 | 0.00 | 0.00 | 0.00 | 58 | 1017.5 |
| 20260905173532 | 28 | 342 | 3.2 | 14.5 | 0.00 | 0.00 | 0.00 | 59 | 1017.5 |
| 20260905173025 | 28 | 293 | 6.4 | 14.5 | 0.00 | 0.00 | 0.00 | 61 | 1017.5 |
| 20260905171832 | 28 | 320 | 4.8 | 11.3 | 0.00 | 0.00 | 0.00 | 74 | 1017.8 |
| 20260905171320 | 28 | 319 | 6.4 | 20.9 | 0.00 | 0.00 | 0.00 | 73 | 1017.7 |
| 20260905170142 | 29 | 322 | 14.5 | 20.9 | 0.00 | 0.00 | 0.00 | 76 | 1017.6 |
| 20260905165648 | 29 | 289 | 11.3 | 20.9 | 0.00 | 0.00 | 0.00 | 75 | 1017.6 |
| 20260905165135 | 29 | 317 | 11.3 | 17.7 | 0.00 | 0.00 | 0.00 | 71 | 1017.6 |
| 20260905164619 | 29 | 248 | 12.9 | 19.3 | 0.00 | 0.00 | 0.00 | 76 | 1017.6 |
| 20260905164121 | 29 | 292 | 12.9 | 19.3 | 0.00 | 0.00 | 0.00 | 75 | 1017.5 |
| 20260905163628 | 29 | 263 | 11.3 | 19.3 | 0.00 | 0.00 | 0.00 | 76 | 1017.5 |
| 20260905163120 | 30 | 292 | 9.7 | 19.3 | 0.00 | 0.00 | 0.00 | 75 | 1017.5 |
| 20260905162612 | 30 | 312 | 6.4 | 14.5 | 0.00 | 0.00 | 0.00 | 72 | 1017.5 |
| 20260905162114 | 30 | 286 | 3.2 | 12.9 | 0.00 | 0.00 | 0.00 | 70 | 1017.6 |
| 20260905161555 | 30 | 65 | 1.6 | 8.0 | 0.00 | 0.00 | 0.00 | 71 | 1017.6 |
| 20260905161046 | 30 | 57 | 1.6 | 8.0 | 0.00 | 0.00 | 0.00 | 69 | 1017.6 |
| 20260905160540 | 31 | 127 | 3.2 | 11.3 | 0.00 | 0.00 | 0.00 | 68 | 1017.5 |
| 20260905160038 | 31 | 146 | 3.2 | 11.3 | 0.00 | 0.00 | 0.00 | 69 | 1017.5 |
| 20260905155546 | 31 | 133 | 3.2 | 20.9 | 0.00 | 0.00 | 0.00 | 68 | 1017.5 |
| 20260905155056 | 31 | 132 | 8.0 | 20.9 | 0.00 | 0.00 | 0.00 | 66 | 1017.6 |
| 20260905153917 | 30 | 289 | 14.5 | 20.9 | 0.00 | 0.00 | 0.00 | 71 | 1017.5 |
| 20260905153427 | 30 | 313 | 12.9 | 19.3 | 0.00 | 0.00 | 0.00 | 65 | 1017.5 |
| 20260905152928 | 30 | 296 | 6.4 | 17.7 | 0.00 | 0.00 | 0.00 | 73 | 1017.6 |
| 20260905152434 | 30 | 28 | 3.2 | 4.8 | 0.00 | 0.00 | 0.00 | 76 | 1017.6 |
| 20260905151942 | 30 | 75 | 3.2 | 4.8 | 0.00 | 0.00 | 0.00 | 75 | 1017.6 |
| 20260905151452 | 30 | 75 | 4.8 | 11.3 | 0.00 | 0.00 | 0.00 | 73 | 1017.7 |
| 20260905145654 | 31 | 91 | 1.6 | 9.7 | 0.00 | 0.00 | 0.00 | 71 | 1017.7 |
| 20260905145151 | 31 | 103 | 1.6 | 9.7 | 0.00 | 0.00 | 0.00 | 71 | 1017.8 |
| 20260905144637 | 31 | 99 | 0.0 | 6.4 | 0.00 | 0.00 | 0.00 | 71 | 1017.7 |
| 20260905143446 | 30 | 101 | 1.6 | 8.0 | 0.00 | 0.00 | 0.00 | 71 | 1017.9 |
| 20260905142932 | 30 | 112 | 1.6 | 9.7 | 0.00 | 0.00 | 0.00 | 73 | 1017.9 |
| 20260905142441 | 30 | 38 | 4.8 | 9.7 | 0.00 | 0.00 | 0.00 | 71 | 1017.9 |
| 20260905141927 | 30 | 38 | 6.4 | 9.7 | 0.00 | 0.00 | 0.00 | 71 | 1018.0 |
| 20260905141435 | 30 | 45 | 4.8 | 9.7 | 0.00 | 0.00 | 0.00 | 71 | 1018.0 |
| 20260905140932 | 30 | 19 | 4.8 | 6.4 | 0.00 | 0.00 | 0.00 | 69 | 1018.0 |
| 20260905140416 | 30 | 18 | 3.2 | 6.4 | 0.00 | 0.00 | 0.00 | 68 | 1018.0 |
| 20260905135917 | 30 | 69 | 3.2 | 6.4 | 0.00 | 0.00 | 0.00 | 71 | 1018.0 |
| 20260905135412 | 30 | 81 | 3.2 | 12.9 | 0.00 | 0.00 | 0.00 | 72 | 1017.9 |
| 20260905134917 | 30 | 75 | 4.8 | 12.9 | 0.00 | 0.00 | 0.00 | 71 | 1018.0 |
| 20260905134401 | 30 | 86 | 3.2 | 12.9 | 0.00 | 0.00 | 0.00 | 70 | 1017.9 |
| 20260905133247 | 30 | 126 | 3.2 | 9.7 | 0.00 | 0.00 | 0.00 | 68 | 1017.9 |
| 20260905132749 | 30 | 100 | 1.6 | 11.3 | 0.00 | 0.00 | 0.00 | 68 | 1017.9 |
| 20260905131610 | 30 | 74 | 3.2 | 11.3 | 0.00 | 0.00 | 0.00 | 70 | 1018.3 |
| 20260905130446 | 30 | 92 | 3.2 | 8.0 | 0.00 | 0.00 | 0.00 | 69 | 1018.4 |
| 20260905125940 | 30 | 67 | 3.2 | 8.0 | 0.00 | 0.00 | 0.00 | 71 | 1018.4 |
| 20260905125422 | 30 | 79 | 3.2 | 8.0 | 0.00 | 0.00 | 0.00 | 71 | 1018.5 |
| 20260905124912 | 30 | 90 | 1.6 | 8.0 | 0.00 | 0.00 | 0.00 | 75 | 1018.6 |
| 20260905124419 | 30 | 54 | 1.6 | 4.8 | 0.00 | 0.00 | 0.00 | 74 | 1018.6 |
| 20260905123902 | 30 | 53 | 3.2 | 4.8 | 0.00 | 0.00 | 0.00 | 72 | 1018.6 |
| 20260905122723 | 29 | 11 | 1.6 | 12.9 | 0.00 | 0.00 | 0.00 | 74 | 1018.6 |
| 20260905122232 | 30 | 17 | 4.8 | 16.1 | 0.00 | 0.00 | 0.00 | 75 | 1018.6 |
| 20260905121046 | 29 | 136 | 8.0 | 17.7 | 0.00 | 0.00 | 0.00 | 80 | 1018.7 |
| 20260905120547 | 29 | 126 | 9.7 | 17.7 | 0.00 | 0.00 | 0.00 | 80 | 1018.7 |
| 20260905120037 | 29 | 130 | 9.7 | 17.7 | 0.00 | 0.00 | 0.00 | 81 | 1018.6 |
| 20260905115534 | 30 | 132 | 9.7 | 17.7 | 0.00 | 0.00 | 0.00 | 81 | 1018.6 |
| 20260905114415 | 29 | 141 | 11.3 | 16.1 | 0.00 | 0.00 | 0.00 | 80 | 1018.6 |
| 20260905113906 | 30 | 138 | 8.0 | 16.1 | 0.00 | 0.00 | 0.00 | 79 | 1018.6 |
| 20260905113415 | 30 | 136 | 8.0 | 16.1 | 0.00 | 0.00 | 0.00 | 78 | 1018.6 |
| 20260905112918 | 30 | 147 | 4.8 | 14.5 | 0.00 | 0.00 | 0.00 | 77 | 1018.6 |
| 20260905111740 | 30 | 128 | 1.6 | 9.7 | 0.00 | 0.00 | 0.00 | 79 | 1018.6 |
| 20260905111225 | 30 | 68 | 1.6 | 9.7 | 0.00 | 0.00 | 0.00 | 79 | 1018.8 |
| 20260905110730 | 30 | 95 | 1.6 | 9.7 | 0.00 | 0.00 | 0.00 | 80 | 1018.8 |
| 20260905110217 | 30 | 124 | 0.0 | 4.8 | 0.00 | 0.00 | 0.00 | 80 | 1018.7 |
| 20260905105709 | 30 | 80 | 0.0 | 4.8 | 0.00 | 0.00 | 0.00 | 82 | 1018.8 |
| 20260905105201 | 29 | 100 | 1.6 | 8.0 | 0.00 | 0.00 | 0.00 | 82 | 1018.8 |
| 20260905104642 | 28 | 126 | 3.2 | 8.0 | 0.00 | 0.00 | 0.00 | 82 | 1018.8 |
| 20260905104138 | 28 | 82 | 3.2 | 8.0 | 0.00 | 0.00 | 0.00 | 82 | 1018.8 |
| 20260905103624 | 28 | 84 | 1.6 | 8.0 | 0.00 | 0.00 | 0.00 | 82 | 1018.8 |
| 20260905103127 | 28 | 85 | 3.2 | 8.0 | 0.00 | 0.00 | 0.00 | 83 | 1018.9 |
| 20260905102629 | 28 | 97 | 3.2 | 8.0 | 0.00 | 0.00 | 0.00 | 83 | 1018.9 |
| 20260905101513 | 28 | 5 | 4.8 | 8.0 | 0.00 | 0.00 | 0.00 | 84 | 1018.9 |
| 20260905100959 | 28 | 0 | 6.4 | 14.5 | 0.00 | 0.00 | 0.00 | 85 | 1019.0 |
| 20260905100448 | 28 | 330 | 9.7 | 14.5 | 0.00 | 0.00 | 0.00 | 84 | 1018.9 |
| 20260905095311 | 28 | 322 | 12.9 | 16.1 | 0.00 | 0.00 | 0.00 | 84 | 1019.0 |
| 20260905094814 | 28 | 318 | 12.9 | 16.1 | 0.00 | 0.00 | 0.00 | 84 | 1019.2 |
| 20260905094313 | 28 | 315 | 12.9 | 16.1 | 0.00 | 0.00 | 0.00 | 83 | 1019.1 |
| 20260905093203 | 28 | 309 | 12.9 | 17.7 | 0.00 | 0.00 | 0.00 | 83 | 1019.0 |
| 20260905092658 | 28 | 321 | 12.9 | 17.7 | 0.00 | 0.00 | 0.00 | 83 | 1019.1 |
| 20260905092148 | 28 | 315 | 12.9 | 17.7 | 0.00 | 0.00 | 0.00 | 84 | 1019.1 |
| 20260905091639 | 28 | 313 | 9.7 | 16.1 | 0.00 | 0.00 | 0.00 | 83 | 1019.1 |
| 20260905091141 | 28 | 319 | 6.4 | 14.5 | 0.00 | 0.00 | 0.00 | 84 | 1019.1 |
| 20260905090631 | 28 | 331 | 6.4 | 9.7 | 0.00 | 0.00 | 0.00 | 84 | 1018.9 |
| 20260905090140 | 28 | 325 | 6.4 | 9.7 | 0.00 | 0.00 | 0.00 | 84 | 1018.8 |
| 20260905085636 | 28 | 326 | 6.4 | 9.7 | 0.00 | 0.00 | 0.00 | 84 | 1018.8 |
| 20260905085143 | 28 | 318 | 6.4 | 9.7 | 0.00 | 0.00 | 0.00 | 84 | 1018.8 |
| 20260905084044 | 28 | 324 | 4.8 | 9.7 | 0.00 | 0.00 | 0.00 | 83 | 1018.8 |
| 20260905083538 | 28 | 319 | 4.8 | 9.7 | 0.00 | 0.00 | 0.00 | 84 | 1018.8 |
| 20260905083039 | 28 | 325 | 3.2 | 6.4 | 0.00 | 0.00 | 0.00 | 84 | 1018.6 |
| 20260905082540 | 28 | 327 | 3.2 | 6.4 | 0.00 | 0.00 | 0.00 | 83 | 1018.5 |
| 20260905082036 | 28 | 325 | 3.2 | 6.4 | 0.00 | 0.00 | 0.00 | 83 | 1018.5 |
| 20260905081518 | 28 | 329 | 3.2 | 4.8 | 0.00 | 0.00 | 0.00 | 84 | 1018.4 |
| 20260905081001 | 28 | 329 | 3.2 | 4.8 | 0.00 | 0.00 | 0.00 | 84 | 1018.4 |
| 20260905080458 | 28 | 329 | 3.2 | 4.8 | 0.00 | 0.00 | 0.00 | 84 | 1018.3 |